Weather History for KCIN - February, 2013

Change the Weather History Date:

Thursday, February 21, 2013

  Actual Average Record
Temperature  
Mean Temperature 20 °F -  
Max Temperature 26 °F 38 °F 64 °F (1977)
Min Temperature 15 °F 17 °F -16 °F (1963)
Degree Days  
Heating Degree Days 44    
Moisture  
Dew Point 14 °F    
Average Humidity 75    
Maximum Humidity 93    
Minimum Humidity 50    
Precipitation  
Precipitation 0.03 in - - ()
Sea Level Pressure  
Sea Level Pressure 30.07 in    
Wind  
Wind Speed 15 mph (East)    
Max Wind Speed 26 mph    
Max Gust Speed 33 mph    
Visibility 7 miles    
Events Snow    
Averages and records for this station are not official NWS values.
T = Trace of Precipitation, MM = Missing Value Source: NWS Daily Summary

Daily Weather History Graph

Daily Weather History Graph

Search for Another Location

Airport or City:

Trip Planner

Search our weather history database for the weather conditions in past years. The results will help you decide how hot, cold, wet, or windy it might be!

Date:

Astronomy

Feb. 21, 2013 Rise Set
Actual Time 7:06 AM CST 5:59 PM CST
Civil Twilight 6:37 AM CST 6:28 PM CST
Nautical Twilight 6:05 AM CST 7:00 PM CST
Astronomical Twilight 5:33 AM CST 7:33 PM CST
Moon 2:12 PM CST (2/21) 4:14 AM CST (2/21)
Length of Visible Light 11h 50m
Length of Day
10h 53m
Waxing Gibbous, 84% of the Moon is Illuminated
Feb 21
Waxing Gibbous
Feb 25
Full
Mar 4
Last Quarter
Mar 11
New
Mar 19
First Quarter

Hourly Weather History & Observations

Time (CST) Temp. Windchill Dew Point Humidity Pressure Visibility Wind Dir Wind Speed Gust Speed Precip Events Conditions
12:15 AM 19.4 °F 10.4 °F 8.6 °F 63% 30.29 in 10.0 mi SE 6.9 mph - N/A   Overcast
12:35 AM 19.4 °F 10.4 °F 10.4 °F 68% 30.28 in 10.0 mi ESE 6.9 mph - N/A   Overcast
12:55 AM 19.4 °F 7.9 °F 10.4 °F 68% 30.27 in 10.0 mi East 10.4 mph - N/A   Overcast
1:15 AM 19.4 °F 8.6 °F 10.4 °F 68% 30.27 in 10.0 mi East 9.2 mph 16.1 mph N/A   Overcast
1:35 AM 19.4 °F 8.6 °F 10.4 °F 68% 30.28 in 10.0 mi ESE 9.2 mph - N/A   Overcast
1:55 AM 19.4 °F 6.0 °F 10.4 °F 68% 30.27 in 10.0 mi East 13.8 mph - N/A   Overcast
2:15 AM 19.4 °F 7.2 °F 10.4 °F 68% 30.26 in 10.0 mi East 11.5 mph - N/A   Overcast
2:35 AM 19.4 °F 6.6 °F 10.4 °F 68% 30.25 in 10.0 mi East 12.7 mph - N/A   Overcast
2:55 AM 19.4 °F 6.6 °F 10.4 °F 68% 30.24 in 10.0 mi East 12.7 mph - N/A   Overcast
3:15 AM 17.6 °F 5.0 °F 10.4 °F 73% 30.22 in 10.0 mi East 11.5 mph - N/A   Scattered Clouds
3:35 AM 17.6 °F 4.3 °F 10.4 °F 73% 30.18 in 10.0 mi East 12.7 mph - N/A   Clear
3:55 AM 15.8 °F 4.2 °F 10.4 °F 79% 30.21 in 10.0 mi East 9.2 mph - N/A   Clear
4:15 AM 15.8 °F 4.2 °F 10.4 °F 79% 30.22 in 10.0 mi East 9.2 mph - N/A   Clear
4:35 AM 15.8 °F 6.1 °F 12.2 °F 86% 30.23 in 10.0 mi East 6.9 mph - N/A   Mostly Cloudy
4:55 AM 17.6 °F 6.4 °F 12.2 °F 79% 30.21 in 10.0 mi East 9.2 mph - N/A   Overcast
5:15 AM 17.6 °F 3.7 °F 12.2 °F 79% 30.20 in 10.0 mi East 13.8 mph - N/A   Mostly Cloudy
5:55 AM 17.6 °F 5.0 °F 12.2 °F 79% 30.18 in 10.0 mi East 11.5 mph 19.6 mph N/A   Scattered Clouds
6:15 AM 17.6 °F 3.7 °F 12.2 °F 79% 30.19 in 10.0 mi East 13.8 mph - N/A   Clear
6:35 AM 17.6 °F 4.3 °F 12.2 °F 79% 30.20 in 10.0 mi East 12.7 mph - N/A   Scattered Clouds
6:55 AM 17.6 °F 4.3 °F 12.2 °F 79% 30.18 in 10.0 mi East 12.7 mph - N/A   Overcast
7:15 AM 17.6 °F 4.3 °F 12.2 °F 79% 30.20 in 10.0 mi East 12.7 mph - N/A   Scattered Clouds
7:35 AM 17.6 °F 4.3 °F 12.2 °F 79% 30.21 in 10.0 mi East 12.7 mph 18.4 mph N/A   Mostly Cloudy
7:55 AM 17.6 °F 1.7 °F 10.4 °F 73% 30.19 in 10.0 mi East 18.4 mph - N/A   Overcast
8:15 AM 17.6 °F 2.2 °F 10.4 °F 73% 30.17 in 10.0 mi East 17.3 mph - N/A   Mostly Cloudy
8:35 AM 19.4 °F 4.1 °F 10.4 °F 68% 30.16 in 10.0 mi East 18.4 mph - N/A   Partly Cloudy
8:55 AM 19.4 °F 3.6 °F 10.4 °F 68% 30.16 in 10.0 mi East 19.6 mph - N/A   Clear
9:15 AM 19.4 °F 3.6 °F 10.4 °F 68% 30.20 in 10.0 mi East 19.6 mph - N/A   Scattered Clouds
9:35 AM 19.4 °F 3.6 °F 8.6 °F 63% 30.21 in 9.0 mi East 19.6 mph - N/A   Overcast
9:55 AM 19.4 °F 4.1 °F 8.6 °F 63% 30.19 in 10.0 mi East 18.4 mph 25.3 mph N/A   Overcast
10:15 AM 21.2 °F 5.2 °F 8.6 °F 58% 30.17 in 10.0 mi East 21.9 mph - N/A   Overcast
10:35 AM 21.2 °F 5.6 °F 10.4 °F 63% 30.17 in 10.0 mi East 20.7 mph - N/A   Scattered Clouds
10:55 AM 21.2 °F 5.2 °F 10.4 °F 63% 30.14 in 10.0 mi East 21.9 mph - N/A   Clear
11:15 AM 23.0 °F 7.6 °F 10.4 °F 59% 30.13 in 10.0 mi East 21.9 mph 28.8 mph N/A   Clear
11:35 AM 23.0 °F 7.6 °F 10.4 °F 59% 30.11 in 10.0 mi East 21.9 mph - N/A   Clear
11:55 AM 23.0 °F 7.6 °F 10.4 °F 59% 30.10 in 10.0 mi East 21.9 mph - N/A   Clear
12:15 PM 24.8 °F 10.3 °F 10.4 °F 54% 30.09 in 10.0 mi East 20.7 mph - N/A   Clear
12:35 PM 24.8 °F 10.3 °F 8.6 °F 50% 30.07 in 10.0 mi East 20.7 mph - N/A   Clear
12:55 PM 24.8 °F 9.0 °F 10.4 °F 54% 30.06 in 10.0 mi East 25.3 mph - N/A   Partly Cloudy
1:15 PM 26.6 °F 11.4 °F 10.4 °F 51% 30.03 in 10.0 mi ENE 25.3 mph - N/A   Partly Cloudy
1:35 PM 24.8 °F 8.7 °F 10.4 °F 54% 30.03 in 10.0 mi East 26.5 mph 32.2 mph N/A   Partly Cloudy
1:55 PM 26.6 °F 11.7 °F 10.4 °F 51% 30.01 in 10.0 mi East 24.2 mph - N/A   Clear
2:15 PM 24.8 °F 9.3 °F 10.4 °F 54% 29.99 in 10.0 mi ENE 24.2 mph 33.4 mph N/A   Mostly Cloudy
2:35 PM 24.8 °F 9.6 °F 10.4 °F 54% 30.01 in 10.0 mi East 23.0 mph 32.2 mph N/A   Mostly Cloudy
2:55 PM 24.8 °F 9.6 °F 10.4 °F 54% 30.00 in 10.0 mi East 23.0 mph 29.9 mph N/A   Mostly Cloudy
3:15 PM 24.8 °F 11.1 °F 12.2 °F 59% 29.99 in 8.0 mi East 18.4 mph 28.8 mph N/A   Overcast
3:35 PM 24.8 °F 10.0 °F 12.2 °F 59% 30.00 in 9.0 mi East 21.9 mph - N/A   Mostly Cloudy
3:55 PM 23.0 °F 6.9 °F 17.6 °F 80% 29.99 in 0.2 mi East 24.2 mph 29.9 mph N/A Snow Light Snow
4:15 PM 23.0 °F 8.7 °F 19.4 °F 86% 29.97 in 0.2 mi ENE 18.4 mph 25.3 mph N/A Snow Light Snow
4:35 PM 23.0 °F 9.2 °F 19.4 °F 86% 29.97 in 1.0 mi ENE 17.3 mph 26.5 mph N/A Snow Light Snow
4:55 PM 23.0 °F 7.2 °F 19.4 °F 86% 29.96 in 0.5 mi ENE 23.0 mph - N/A Snow Light Snow
5:15 PM 23.0 °F 9.2 °F 21.2 °F 93% 29.95 in 0.2 mi ENE 17.3 mph 24.2 mph N/A Snow Light Snow
5:35 PM 23.0 °F 8.3 °F 21.2 °F 93% 29.95 in 0.5 mi ENE 19.6 mph - N/A   Overcast
5:55 PM 23.0 °F 7.6 °F 21.2 °F 93% 29.94 in 1.0 mi ENE 21.9 mph 28.8 mph 0.02 in Snow Light Snow
6:15 PM 23.0 °F 8.3 °F 21.2 °F 93% 29.94 in 0.5 mi ENE 19.6 mph 26.5 mph N/A Snow Light Snow
6:35 PM 23.0 °F 8.3 °F 21.2 °F 93% 29.93 in 1.8 mi ENE 19.6 mph - N/A Snow Light Snow
6:55 PM 23.0 °F 8.3 °F 21.2 °F 93% 29.93 in 1.8 mi ENE 19.6 mph - N/A   Overcast
7:15 PM 23.0 °F 7.2 °F 21.2 °F 93% 29.92 in 1.5 mi ENE 23.0 mph 28.8 mph N/A   Overcast
7:35 PM 23.0 °F 8.7 °F 19.4 °F 86% 29.92 in 2.0 mi ENE 18.4 mph 27.6 mph N/A Snow Light Snow
7:55 PM 21.2 °F 6.0 °F 19.4 °F 93% 29.92 in 2.5 mi ENE 19.6 mph 29.9 mph N/A Snow Light Snow
8:15 PM 21.2 °F 5.6 °F 19.4 °F 93% 29.91 in 2.0 mi ENE 20.7 mph 27.6 mph N/A Snow Light Snow
8:35 PM 21.2 °F 5.6 °F 19.4 °F 93% 29.90 in 2.0 mi NE 20.7 mph 26.5 mph N/A Snow Light Snow
8:55 PM 21.2 °F 5.6 °F 17.6 °F 86% 29.90 in 2.5 mi NE 20.7 mph 27.6 mph 0.01 in Snow Light Snow
9:15 PM 21.2 °F 6.0 °F 17.6 °F 86% 29.90 in 4.0 mi NE 19.6 mph 28.8 mph N/A Snow Light Snow
9:35 PM 21.2 °F 5.6 °F 17.6 °F 86% 29.90 in 4.0 mi NE 20.7 mph - N/A Snow Light Snow
9:55 PM 19.4 °F 4.5 °F 17.6 °F 93% 29.90 in 2.5 mi NE 17.3 mph - N/A Snow Light Snow
10:15 PM 21.2 °F 7.3 °F 17.6 °F 86% 29.89 in 1.0 mi NE 16.1 mph 25.3 mph N/A Snow Light Snow
10:35 PM 21.2 °F 6.4 °F 17.6 °F 86% 29.88 in 1.2 mi NE 18.4 mph - N/A Snow Light Snow
10:55 PM 19.4 °F 3.2 °F 17.6 °F 93% 29.87 in 0.8 mi NE 20.7 mph - N/A Snow Light Snow
11:15 PM 19.4 °F 4.1 °F 17.6 °F 93% 29.86 in 0.8 mi NE 18.4 mph 24.2 mph N/A Snow Light Snow
11:35 PM 19.4 °F 3.6 °F 17.6 °F 93% 29.85 in 0.5 mi NE 19.6 mph - N/A Snow Light Snow
11:55 PM 19.4 °F 4.1 °F 17.6 °F 93% 29.84 in 0.8 mi NE 18.4 mph 25.3 mph N/A Snow Light Snow